EW7082 Weather Reports


Display with metric or nautical units.
time (UTC)temp
F
wind
direction
speed
MPH
gust
MPH
rain 1hr
in
rain 24hr
in
rain mn
in
humidity
%
barometer
mb
20260901164705 59 303 5.0 7.0 0.00 0.00 0.00 92 1009.8
20260901164205 59 266 4.0 7.0 0.00 0.00 0.00 93 1009.8
20260901163704 58 279 3.0 6.0 0.00 0.00 0.00 93 1009.8
20260901163206 58 272 5.0 7.0 0.00 0.00 0.00 94 1009.9
20260901162705 58 270 3.0 9.0 0.00 0.00 0.00 94 1009.9
20260901162205 58 260 5.0 7.0 0.00 0.00 0.00 94 1009.9
20260901161704 58 256 5.0 8.0 0.00 0.00 0.00 95 1009.9
20260901161205 58 288 2.0 3.0 0.00 0.00 0.00 95 1009.9
20260901160703 57 281 2.0 7.0 0.00 0.00 0.00 95 1009.9
20260901160204 57 263 2.0 8.0 0.00 0.00 0.00 95 1009.9
20260901155704 57 266 3.0 7.0 0.00 0.00 0.00 95 1009.8
20260901155204 57 285 2.0 3.0 0.00 0.00 0.00 96 1009.9
20260901154705 56 289 3.0 3.0 0.00 0.00 0.00 96 1009.9
20260901154204 56 294 1.0 3.0 0.00 0.00 0.00 96 1009.9
20260901153205 55 278 1.0 3.0 0.00 0.00 0.00 96 1009.9
20260901152705 55 274 1.0 3.0 0.00 0.00 0.00 96 1009.9
20260901152204 55 277 1.0 3.0 0.00 0.00 0.00 96 1009.9
20260901151706 54 274 2.0 3.0 0.00 0.00 0.00 96 1009.9
20260901151203 54 274 1.0 3.0 0.00 0.00 0.00 96 1009.8
20260901150704 53 260 0.0 1.0 0.00 0.00 0.00 96 1009.7
20260901150206 53 260 1.0 3.0 0.00 0.00 0.00 96 1009.7
20260901145704 53 261 0.0 1.0 0.00 0.00 0.00 96 1009.6
20260901145204 53 261 0.0 0.0 0.00 0.00 0.00 96 1009.6
20260901144204 52 280 1.0 2.0 0.00 0.00 0.00 96 1009.5
20260901143704 52 266 1.0 2.0 0.00 0.00 0.00 96 1009.5
20260901143204 52 266 0.0 2.0 0.00 0.00 0.00 96 1009.3
20260901142703 51 257 0.0 2.0 0.00 0.00 0.00 97 1009.3
20260901142204 51 190 0.0 0.0 0.00 0.00 0.00 97 1009.3
20260901141204 50 190 0.0 0.0 0.00 0.00 0.00 96 1009.3
20260901140703 50 190 0.0 0.0 0.00 0.00 0.00 96 1009.3
20260901140206 50 190 0.0 0.0 0.00 0.00 0.00 96 1009.3
20260901134204 49 190 0.0 0.0 0.00 0.00 0.00 96 1009.1
20260901133705 49 190 0.0 0.0 0.00 0.00 0.00 96 1009.1
20260901133205 49 190 0.0 0.0 0.00 0.00 0.00 96 1009.1
20260901132704 49 190 0.0 0.0 0.00 0.00 0.00 96 1009.1
20260901132204 49 190 0.0 0.0 0.00 0.00 0.00 96 1009.1
20260901131706 49 190 0.0 0.0 0.00 0.00 0.00 96 1009.0
20260901131205 48 190 0.0 0.0 0.00 0.00 0.00 96 1009.0
20260901130205 48 190 0.0 0.0 0.00 0.00 0.00 95 1009.0
20260901124203 48 190 0.0 1.0 0.00 0.00 0.00 95 1009.1
20260901123704 48 190 0.0 2.0 0.00 0.00 0.00 94 1009.1
20260901122704 49 155 0.0 1.0 0.00 0.00 0.00 95 1009.1
20260901122204 50 175 0.0 1.0 0.00 0.00 0.00 96 1009.2
20260901121705 50 288 0.0 1.0 0.00 0.00 0.00 95 1009.2
20260901120705 50 288 0.0 1.0 0.00 0.00 0.00 96 1009.2
20260901115703 49 288 0.0 3.0 0.00 0.00 0.00 95 1009.1
20260901115205 49 271 0.0 3.0 0.00 0.00 0.00 95 1009.1
20260901114705 49 202 0.0 0.0 0.00 0.00 0.00 95 1009.0
20260901114204 49 202 0.0 0.0 0.00 0.00 0.00 95 1009.1
20260901113704 49 202 0.0 0.0 0.00 0.00 0.00 95 1009.0
20260901113206 49 202 0.0 0.0 0.00 0.00 0.00 95 1009.0
20260901112704 49 202 0.0 0.0 0.00 0.00 0.00 95 1009.1
20260901112204 49 202 0.0 0.0 0.00 0.00 0.00 95 1009.1
20260901111705 49 202 0.0 0.0 0.00 0.00 0.00 95 1009.1
20260901111204 48 202 0.0 0.0 0.00 0.00 0.00 94 1009.1
20260901110205 49 202 0.0 0.0 0.00 0.00 0.00 94 1009.1
20260901105703 49 202 0.0 1.0 0.00 0.00 0.00 95 1009.1
20260901104705 49 202 0.0 1.0 0.00 0.00 0.00 94 1009.2
20260901103704 50 202 0.0 0.0 0.00 0.00 0.00 94 1009.2
20260901103205 50 202 0.0 1.0 0.00 0.00 0.00 94 1009.3
20260901102704 50 202 1.0 1.0 0.00 0.00 0.00 94 1009.3
20260901101705 50 202 0.0 1.0 0.00 0.00 0.00 94 1009.2
20260901100704 50 202 1.0 1.0 0.00 0.00 0.00 94 1009.2
20260901100205 50 202 0.0 0.0 0.00 0.00 0.00 93 1009.2
20260901095704 50 202 0.0 0.0 0.00 0.00 0.00 93 1009.3
20260901095204 50 202 0.0 0.0 0.00 0.00 0.00 93 1009.2
20260901094204 51 202 0.0 0.0 0.00 0.00 0.00 93 1009.2
20260901093704 51 202 0.0 0.0 0.00 0.00 0.00 94 1009.1
20260901092705 51 202 0.0 0.0 0.00 0.00 0.00 93 1009.1
20260901092204 51 202 0.0 0.0 0.00 0.00 0.00 93 1009.1
20260901091705 51 202 0.0 1.0 0.00 0.00 0.00 93 1009.1
20260901091205 51 202 0.0 1.0 0.00 0.00 0.00 94 1009.2
20260901090704 51 202 0.0 1.0 0.00 0.00 0.00 93 1009.2
20260901090206 52 202 0.0 0.0 0.00 0.00 0.00 94 1009.1
20260901085704 52 202 0.0 1.0 0.00 0.00 0.00 93 1009.0
20260901085204 52 202 0.0 1.0 0.00 0.00 0.00 93 1009.0
20260901084705 52 202 0.0 0.0 0.00 0.00 0.00 93 1008.9
20260901084204 52 202 0.0 0.0 0.00 0.00 0.00 93 1008.9
20260901083705 52 202 1.0 2.0 0.00 0.00 0.00 93 1008.9
20260901082704 52 202 1.0 3.0 0.00 0.00 0.00 93 1009.0
20260901081706 52 234 0.0 0.0 0.00 0.00 0.00 93 1009.0
20260901080704 52 234 0.0 0.0 0.00 0.00 0.00 93 1008.9
20260901080205 52 234 0.0 0.0 0.00 0.00 0.00 92 1008.8
20260901075705 52 234 0.0 0.0 0.00 0.00 0.00 92 1008.9
20260901075204 52 234 0.0 0.0 0.00 0.00 0.00 93 1008.9
20260901074705 52 234 0.0 0.0 0.00 0.00 0.00 92 1008.9
20260901074206 53 234 0.0 0.0 0.00 0.00 0.00 92 1008.9
20260901073703 53 234 0.0 0.0 0.00 0.00 0.00 92 1008.9
20260901072704 53 234 0.0 0.0 0.00 0.00 0.00 92 1008.9
20260901072204 53 234 0.0 0.0 0.00 0.00 0.00 92 1008.9
20260901071705 53 234 0.0 0.0 0.00 0.00 0.00 93 1008.9
20260901070704 53 234 0.0 1.0 0.00 0.00 0.00 92 1008.9
20260901070205 53 234 1.0 2.0 0.00 0.00 0.00 91 1009.0
20260901065705 53 234 1.0 1.0 0.00 0.00 0.00 91 1009.0
20260901065204 53 234 0.0 2.0 0.00 0.00 0.00 90 1009.1
20260901064705 54 234 2.0 3.0 0.00 0.00 0.00 90 1009.2
20260901064203 54 234 0.0 2.0 0.00 0.00 0.00 91 1009.2
20260901063704 54 234 1.0 2.0 0.00 0.00 0.00 91 1009.2
20260901063205 54 234 0.0 0.0 0.00 0.00 0.00 91 1009.2
20260901062703 54 234 0.0 2.0 0.00 0.00 0.00 91 1009.2
20260901062204 54 234 1.0 2.0 0.00 0.00 0.00 91 1009.2
20260901061705 54 234 1.0 2.0 0.00 0.00 0.00 91 1009.2
20260901061205 54 234 1.0 2.0 0.00 0.00 0.00 91 1009.2
20260901060704 54 234 1.0 2.0 0.00 0.00 0.00 90 1009.3
20260901060206 55 234 0.0 1.0 0.00 0.00 0.00 90 1009.3
20260901055705 55 234 1.0 2.0 0.00 0.00 0.00 90 1009.4
20260901054704 55 234 1.0 2.0 0.00 0.00 0.00 88 1009.4
20260901054204 56 234 1.0 2.0 0.00 0.00 0.00 88 1009.5
20260901053704 56 234 0.0 0.0 0.00 0.00 0.00 89 1009.5
20260901053204 56 234 0.0 0.0 0.00 0.00 0.00 88 1009.5
20260901052204 57 234 1.0 1.0 0.00 0.00 0.00 88 1009.5
20260901051706 57 234 1.0 2.0 0.00 0.00 0.00 88 1009.5
20260901050703 57 263 1.0 3.0 0.00 0.00 0.00 87 1009.5
20260901050205 57 264 2.0 3.0 0.00 0.00 0.00 87 1009.5
20260901045705 57 265 1.0 2.0 0.00 0.00 0.00 87 1009.5
20260901045205 58 265 2.0 3.0 0.00 0.00 0.00 86 1009.5
20260901044705 58 261 2.0 3.0 0.00 0.00 0.00 86 1009.6
20260901044204 58 273 2.0 3.0 0.00 0.00 0.00 86 1009.6
20260901043705 58 264 2.0 3.0 0.00 0.00 0.00 86 1009.5
20260901043205 58 266 2.0 3.0 0.00 0.00 0.00 85 1009.5
20260901042704 58 265 2.0 3.0 0.00 0.00 0.00 85 1009.5
20260901042204 58 280 2.0 6.0 0.00 0.00 0.00 85 1009.5
20260901041706 59 264 3.0 6.0 0.00 0.00 0.00 84 1009.5
20260901041205 59 275 3.0 6.0 0.00 0.00 0.00 84 1009.5
20260901040705 59 275 2.0 7.0 0.00 0.00 0.00 84 1009.5
20260901040205 59 267 3.0 6.0 0.00 0.00 0.00 84 1009.5
20260901035703 59 265 2.0 3.0 0.00 0.00 0.00 83 1009.5
20260901034705 59 261 2.0 3.0 0.00 0.00 0.00 83 1009.5
20260901034205 59 282 2.0 3.0 0.00 0.00 0.00 83 1009.5
20260901033704 59 293 2.0 3.0 0.00 0.00 0.00 83 1009.4
20260901033205 59 264 3.0 6.0 0.00 0.00 0.00 83 1009.4
20260901032704 59 266 2.0 6.0 0.00 0.00 0.00 83 1009.4
20260901031706 59 281 3.0 7.0 0.00 0.00 0.00 82 1009.4
20260901031204 59 283 3.0 7.0 0.00 0.00 0.00 82 1009.4
20260901030704 60 264 3.0 7.0 0.00 0.00 0.00 81 1009.4
20260901025204 61 265 4.0 7.0 0.00 0.00 0.00 79 1009.4
20260901024705 61 260 5.0 9.0 0.00 0.00 0.00 77 1009.4
20260901024204 62 284 4.0 7.0 0.00 0.00 0.00 76 1009.4
20260901023704 63 283 6.0 10.0 0.00 0.00 0.00 73 1009.4
20260901022704 69 297 6.0 10.0 0.00 0.00 0.00 65 1009.3
20260901021705 71 294 2.0 3.0 0.00 0.00 0.00 63 1009.3
20260901020704 71 296 1.0 2.0 0.00 0.00 0.00 63 1009.4
20260901020205 71 296 1.0 3.0 0.00 0.00 0.00 63 1009.4
20260901015705 70 296 1.0 2.0 0.00 0.00 0.00 64 1009.4
20260901015203 70 296 1.0 2.0 0.00 0.00 0.00 64 1009.4
20260901014704 69 296 1.0 1.0 0.00 0.00 0.00 65 1009.5
20260901012704 69 304 1.0 3.0 0.00 0.00 0.00 63 1009.5
20260901012205 69 293 2.0 3.0 0.00 0.00 0.00 64 1009.5
20260901011205 69 300 1.0 3.0 0.00 0.00 0.00 65 1009.7
20260901010705 69 288 1.0 3.0 0.00 0.00 0.00 65 1009.7
20260901010205 70 314 1.0 3.0 0.00 0.00 0.00 64 1009.7
20260901005704 69 308 1.0 2.0 0.00 0.00 0.00 65 1009.7
20260901005204 69 328 1.0 2.0 0.00 0.00 0.00 65 1009.7
20260901004705 69 281 1.0 3.0 0.00 0.00 0.00 64 1009.8
20260901004204 69 321 1.0 3.0 0.00 0.00 0.00 64 1009.8
20260901003704 70 5 2.0 3.0 0.00 0.00 0.00 63 1009.8
20260901003204 70 329 2.0 3.0 0.00 0.00 0.00 63 1009.9
20260901002705 70 312 1.0 3.0 0.00 0.00 0.00 64 1010.0
20260901001706 70 342 2.0 3.0 0.00 0.00 0.00 64 1010.1
20260901001205 70 277 1.0 3.0 0.00 0.00 0.00 64 1010.1
20260901000704 70 304 2.0 3.0 0.00 0.00 0.00 64 1010.1
20260901000204 70 292 2.0 3.0 0.00 0.00 0.00 63 1010.1
20260831235704 70 285 2.0 3.0 0.00 0.00 0.00 62 1010.2
20260831235205 70 317 1.0 3.0 0.00 0.00 0.00 64 1010.2
20260831234705 70 289 1.0 3.0 0.00 0.00 0.00 63 1010.4
20260831234205 70 329 2.0 3.0 0.00 0.00 0.00 62 1010.4
20260831233704 71 323 3.0 9.0 0.00 0.00 0.00 62 1010.4
20260831233205 71 350 3.0 8.0 0.00 0.00 0.00 62 1010.4
20260831232205 71 23 4.0 5.0 0.00 0.00 0.00 62 1010.4
20260831231705 71 304 3.0 8.0 0.00 0.00 0.00 63 1010.6
20260831231206 71 287 2.0 7.0 0.00 0.00 0.00 64 1010.6
20260831230704 70 13 2.0 5.0 0.00 0.00 0.00 64 1010.7
20260831230205 70 300 3.0 8.0 0.00 0.00 0.00 65 1010.8
20260831225705 70 345 3.0 6.0 0.00 0.00 0.00 66 1010.8
20260831225203 69 325 3.0 5.0 0.00 0.00 0.00 66 1010.9
20260831224705 69 340 2.0 5.0 0.00 0.00 0.00 67 1011.2
20260831223704 69 343 3.0 5.0 0.00 0.00 0.00 65 1011.1
20260831223205 70 334 3.0 5.0 0.00 0.00 0.00 64 1011.3
20260831222704 70 329 5.0 10.0 0.00 0.00 0.00 64 1011.3
20260831222204 70 328 3.0 6.0 0.00 0.00 0.00 65 1011.3
20260831221705 70 310 3.0 8.0 0.00 0.00 0.00 66 1011.3
20260831220705 70 26 5.0 8.0 0.00 0.00 0.00 65 1011.4
20260831214204 70 302 7.0 12.0 0.00 0.00 0.00 66 1011.8
20260831213704 69 318 5.0 9.0 0.00 0.00 0.00 66 1012.0
20260831213206 69 95 2.0 8.0 0.00 0.00 0.00 67 1012.0
20260831212704 69 334 3.0 8.0 0.00 0.00 0.00 67 1012.1
20260831212204 69 30 4.0 8.0 0.00 0.00 0.00 68 1012.1
20260831211705 68 7 3.0 10.0 0.00 0.00 0.00 68 1012.2
20260831210205 68 308 6.0 12.0 0.00 0.00 0.00 67 1012.3
20260831205704 69 23 6.0 10.0 0.00 0.00 0.00 68 1012.4
20260831205204 68 316 4.0 10.0 0.00 0.00 0.00 69 1012.4
20260831204204 69 331 6.0 12.0 0.00 0.00 0.00 68 1012.5
20260831203705 69 55 3.0 8.0 0.00 0.00 0.00 69 1012.5
20260831203206 68 64 4.0 9.0 0.00 0.00 0.00 70 1012.6
20260831202704 68 39 5.0 8.0 0.00 0.00 0.00 69 1012.6
20260831202205 68 49 6.0 9.0 0.00 0.00 0.00 69 1012.6
20260831201704 68 43 5.0 10.0 0.00 0.00 0.00 69 1012.7
20260831201204 68 55 6.0 9.0 0.00 0.00 0.00 69 1012.8
20260831200705 68 38 5.0 9.0 0.00 0.00 0.00 70 1012.9
20260831200205 68 60 5.0 8.0 0.00 0.00 0.00 69 1012.9
20260831195705 68 41 6.0 9.0 0.00 0.00 0.00 69 1013.0
20260831195204 67 22 4.0 9.0 0.00 0.00 0.00 70 1013.0
20260831194705 67 67 5.0 10.0 0.00 0.00 0.00 69 1013.1
20260831194205 68 52 6.0 10.0 0.00 0.00 0.00 69 1013.1
20260831193704 68 25 5.0 9.0 0.00 0.00 0.00 68 1013.2
20260831192704 68 11 3.0 8.0 0.00 0.00 0.00 69 1013.2
20260831192204 67 41 6.0 12.0 0.00 0.00 0.00 69 1013.4
20260831191705 67 13 6.0 10.0 0.00 0.00 0.00 69 1013.4
20260831191204 68 49 2.0 10.0 0.00 0.00 0.00 69 1013.5
20260831190704 67 45 4.0 9.0 0.00 0.00 0.00 71 1013.6
20260831190205 67 65 4.0 9.0 0.00 0.00 0.00 71 1013.6
20260831185204 67 342 5.0 8.0 0.00 0.00 0.00 72 1013.8
20260831184705 67 23 4.0 8.0 0.00 0.00 0.00 73 1013.7
20260831184206 66 70 2.0 8.0 0.00 0.00 0.00 75 1013.8
20260831183704 66 324 5.0 9.0 0.00 0.00 0.00 74 1013.8
20260831183205 66 17 3.0 7.0 0.00 0.00 0.00 75 1013.9
20260831182704 66 311 5.0 8.0 0.00 0.00 0.00 76 1014.0
20260831181704 66 8 5.0 8.0 0.00 0.00 0.00 76 1014.0
20260831181205 66 7 5.0 9.0 0.00 0.00 0.00 76 1014.0
20260831180206 66 336 3.0 8.0 0.00 0.00 0.00 75 1014.1
20260831175704 66 307 3.0 8.0 0.00 0.00 0.00 75 1014.2
20260831175205 66 37 2.0 5.0 0.00 0.00 0.00 76 1014.2
20260831174705 66 336 3.0 6.0 0.00 0.00 0.00 76 1014.3
20260831174204 65 340 3.0 7.0 0.00 0.00 0.00 76 1014.3
20260831173205 65 17 3.0 8.0 0.00 0.00 0.00 77 1014.3
20260831172704 65 8 5.0 8.0 0.00 0.00 0.00 77 1014.3
20260831172204 65 28 5.0 8.0 0.00 0.00 0.00 77 1014.4
20260831171704 65 13 4.0 8.0 0.00 0.00 0.00 78 1014.4
20260831171204 65 318 3.0 5.0 0.00 0.00 0.00 78 1014.5
20260831170704 64 16 4.0 7.0 0.00 0.00 0.00 77 1014.5
20260831170205 64 52 3.0 7.0 0.00 0.00 0.00 79 1014.5
20260831165704 64 322 2.0 3.0 0.00 0.00 0.00 81 1014.5
20260831165204 64 335 4.0 7.0 0.00 0.00 0.00 82 1014.5